Location: Nairn
(57.5833°N, 3.8667°W)
Time: 09:47:04
(UTC+00:00)

N. Korean satellite - Pass Details

Date: 29 October 2020
Orbit: 452 x 504 km, 97.2° (Epoch: 25 November)

Event Time Altitude Azimuth Distance (km) Brightness Sun altitude
Rises 06:01:50 0° 15° (NNE) 2,492 10.3 -11.1°
Reaches altitude 10° 06:03:54 10° 17° (NNE) 1,609 9.3 -10.8°
Maximum altitude 06:07:20 78° 103° (ESE) 473 6.6 -10.4°
Drops below altitude 10° 06:10:45 10° 191° (S) 1,590 9.2 -9.9°
Sets 06:12:46 0° 193° (SSW) 2,460 10.1 -9.7°
